GAOFEN-10R

Last updated on Mon Jun 22 2026 00:02:52 GMT+0000 (Coordinated Universal Time)

1 44622U 19066A 26172.53928659 .00000798 00000+0 10471-3 0 9994 2 44622 98.0503 126.1503 0006898 115.9819 244.2105 14.83068474363025
UTC large
Height (km)
Speed (km/s)
/
Latitude / Longitude
Inclination (degrees)
Orbital Period (minutes)
Azimuth
Elevation
Range (km)
Doppler Factor

Next 0 passes for location: London (51.5072 / 0.1276)

No passes found over London.
GAOFEN-10R